CAPE
0 0 0 0 0 0 0 0 0 0 0 0 0 0 0 0 0 0 0 0 0 0 0 0 0 148 160 105 120 91 63 10 0 0 0 0 0 0 72 69 155 189 147
0 0 0 0 0 0 0 0 0 0 0 0 0 0 1 0 0 0 0 0 0 0 0 0 0 27 151 172 146 102 91 4 2 0 0 0 0 0 29 94 54 51 87
0 0 0 0 0 0 0 0 0 0 0 0 0 0 0 0 0 0 0 0 0 18 28 11 0 0 2 75 157 103 59 5 1 0 0 0 0 21 14 14 29 70 29
0 0 0 0 0 0 0 0 0 0 0 0 0 0 0 0 0 0 0 0 0 3 76 43 0 0 7 31 53 82 86 36 3 2 1 1 3 15 25 41 17 2 13
0 0 0 0 0 0 0 0 0 0 0 0 0 0 0 0 7 6 2 0 0 23 82 58 34 0 21 66 66 62 56 46 20 30 12 47 13 8 31 7 14 0 4
1 0 0 0 0 0 0 0 0 0 0 0 0 0 0 0 0 0 0 0 0 8 64 66 52 21 6 3 0 13 38 102 88 6 19 3 0 1 0 0 0 0 0
0 0 0 0 0 0 0 0 0 0 0 0 0 0 0 0 0 0 0 0 0 3 30 53 58 15 11 21 12 11 30 143 82 5 10 1 0 0 0 0 0 0 0
0 0 0 0 0 0 0 0 0 0 0 0 0 0 0 0 0 0 0 0 1 20 38 45 5 3 4 1 2 9 100 8 5 2 0 0 0 0 0 0 0 0 0
2 1 1 0 0 0 0 0 0 0 0 0 0 0 1 0 0 0 0 0 0 9 58 44 92 13 1 0 0 10 0 0 0 0 0 0 0 0 0 0 0 0 0
1 1 1 0 1 1 1 1 0 0 1 9 24 22 7 1 0 0 0 0 1 0 43 40 22 0 0 0 0 0 3 0 0 0 0 0 0 0 0 0 0 0 0
1 1 1 1 2 2 1 1 1 5 20 6 9 12 3 0 0 0 0 0 0 0 34 41 1 0 7 4 0 0 22 6 8 3 0 0 0 0 0 0 0 0 0
1 1 1 0 1 2 2 2 2 2 4 5 6 3 0 3 0 0 0 0 0 1 38 35 13 15 13 0 0 1 37 22 4 0 0 0 0 0 0 0 0 0 0
2 0 0 0 2 3 4 3 1 1 7 13 5 4 3 1 1 0 0 0 0 0 29 7 0 0 0 0 0 0 10 2 0 0 0 0 0 0 0 0 0 2 1
3 2 2 2 3 3 3 3 1 1 4 5 7 3 2 2 0 3 0 0 0 0 12 0 0 0 0 0 0 0 0 0 0 0 0 0 0 0 0 36 27 0 0
4 4 2 3 5 3 3 3 1 0 0 1 2 1 0 1 1 0 1 0 1 3 0 0 0 0 0 0 0 0 0 0 0 0 0 0 0 0 28 56 36 12 18
4 4 3 3 4 5 4 1 0 0 0 0 0 0 0 0 0 0 0 0 0 0 0 0 0 0 0 0 0 0 0 0 0 0 0 0 0 0 136 94 47 53 17
4 4 3 3 5 5 3 2 0 0 0 0 0 0 0 0 0 0 0 0 0 0 2 0 0 0 0 0 0 0 0 0 0 0 0 0 0 0 245 252 147 81 0
2 2 3 5 5 4 3 3 0 0 0 0 0 0 0 0 0 0 0 0 0 0 0 0 0 0 0 0 0 0 0 0 0 0 0 0 0 0 20 225 104 77 0
3 3 3 4 4 4 5 3 2 0 0 0 0 0 0 0 0 0 0 0 0 0 0 0 0 0 0 0 0 0 0 0 0 0 0 0 0 9 3 44 135 18 0
2 2 2 4 4 6 6 5 1 0 0 0 0 0 0 0 0 1 0 0 0 0 0 0 0 0 0 0 0 0 0 0 0 0 0 0 10 28 37 37 52 41 0
2 2 2 3 5 6 7 5 2 15 8 7 1 0 0 0 0 0 0 0 0 0 0 0 0 0 0 0 0 0 0 0 0 0 0 0 2 26 44 46 71 46 19
2 2 3 4 5 7 6 7 4 3 5 0 0 0 0 0 0 0 0 0 0 0 0 0 0 0 0 0 0 0 0 0 0 0 0 6 32 54 138 176 42 0 0
2 3 4 4 4 5 5 8 7 5 3 1 0 0 0 0 0 0 0 0 0 0 0 0 0 0 0 0 0 0 0 0 0 0 0 30 34 98 174 103 4 0 2
2 2 4 4 4 5 6 9 8 4 3 0 0 0 0 0 0 0 0 0 0 0 0 0 0 0 0 0 0 0 0 0 0 0 7 72 13 16 79 51 7 2 3
4 3 3 4 4 5 6 6 8 8 8 4 0 0 0 0 0 0 0 0 0 0 0 0 0 0 0 0 0 0 0 0 0 0 0 0 11 37 55 41 8 0 0
3 4 3 3 3 3 4 5 6 7 9 9 8 5 1 0 0 0 0 0 0 0 0 0 0 0 0 0 0 0 0 0 0 0 0 0 0 30 55 28 1 0 0
CIN
0 0 0 0 0 0 0 0 0 0 0 0 0 0 0 0 0 0 0 0 0 0 0 0 0 -108 -102 -9 -22 -58 -91 -98 0 0 0 0 0 0 -146 -160 -125 -128 -147
0 0 0 0 0 0 0 0 0 0 0 0 0 0 0 0 0 0 0 0 0 0 0 0 0 -14 -6 -71 -2 -24 -38 -102 -76 0 0 0 0 0 -123 -100 -123 -144 -146
0 0 0 0 0 0 0 0 0 0 0 0 0 0 0 0 0 0 0 0 0 -58 -72 -71 0 0 0 -22 -6 -29 -96 -71 0 0 0 0 0 -231 -136 -141 -128 -129 -181
0 0 0 0 0 0 0 0 0 0 0 0 0 0 0 0 0 0 0 0 0 -56 -28 -48 0 0 -61 -114 -48 -42 -64 -83 -21 0 0 -1 -8 -200 -123 -88 -128 -196 -173
0 0 0 0 0 0 0 0 0 0 0 0 0 0 0 0 0 -1 -1 0 0 -41 -23 -30 -12 0 -120 -120 -63 -45 -48 -51 -57 -1 -2 -1 -5 -43 -43 -83 -158 -42 -144
0 0 0 0 0 0 -1 0 0 0 0 0 0 0 0 0 0 0 0 0 0 -19 -18 -22 -15 -72 -5 -59 0 -169 -119 -60 -88 -13 -2 0 0 -90 0 0 0 0 0
0 0 0 0 0 0 0 0 0 0 0 0 0 0 0 0 0 0 -1 0 0 -29 -18 -33 -38 -55 -74 -119 -80 -134 -133 -49 -43 -2 -4 -21 0 0 0 0 0 0 0
0 0 0 0 0 0 0 0 0 0 0 0 0 0 0 0 0 0 0 0 0 -3 -15 -25 -47 -36 -27 -8 -11 -79 -25 -25 -29 -19 0 0 0 0 0 0 0 0 0
0 0 0 0 0 0 0 0 0 0 0 0 0 0 0 0 0 0 0 0 0 -12 -18 -7 0 -47 -7 0 -13 -49 -8 0 0 -20 -17 0 0 0 0 0 0 0 0
0 0 0 0 0 0 0 0 0 0 0 0 0 -1 0 -1 -1 0 0 0 0 0 -6 -17 -7 0 0 0 0 -4 -53 0 0 0 0 0 0 0 0 0 0 0 0
0 0 0 0 0 0 0 0 0 0 0 -5 -1 0 0 -3 -3 0 0 0 0 0 -3 -15 -3 0 -49 -30 -28 -21 -75 -75 -103 -124 0 0 0 0 0 0 0 0 0
0 0 0 0 0 0 0 0 0 -1 -1 -3 0 0 0 -3 0 0 0 0 0 -13 -5 -4 -46 -34 -57 0 0 -89 -118 -133 -126 0 0 0 0 0 0 0 0 0 0
0 0 0 0 0 0 0 0 0 -1 0 0 0 0 0 0 0 0 0 0 0 0 0 -10 -4 -8 0 0 0 0 -203 -217 0 0 0 0 0 0 0 0 0 0 0
0 0 0 0 0 0 0 0 0 0 0 0 0 0 0 0 -3 0 0 0 0 -3 -8 0 0 0 0 0 0 0 0 0 0 0 0 0 0 0 0 -87 -121 0 -11
0 0 0 0 0 0 0 0 0 0 0 0 0 0 0 0 0 0 0 0 0 -74 0 0 0 0 0 0 0 0 0 0 0 0 0 0 0 0 -197 -132 -177 -225 -155
0 0 0 0 0 0 0 0 0 0 0 0 0 0 0 0 0 0 0 0 0 0 0 0 0 0 0 0 0 0 0 0 0 0 0 0 0 0 -121 -126 -181 -145 -145
0 0 0 0 0 0 0 0 0 0 0 0 0 0 0 0 0 0 0 0 0 0 -43 0 0 0 0 0 0 0 0 0 0 0 0 0 0 0 -70 -89 -109 -120 0
0 0 0 0 0 0 0 0 0 0 0 0 0 0 0 0 0 0 0 0 0 0 0 0 0 0 0 0 0 0 0 0 0 0 0 0 0 0 -254 -79 -119 -110 0
0 0 0 0 0 0 0 0 0 0 0 0 0 0 0 0 0 0 0 0 0 0 0 0 0 0 0 0 0 0 0 0 0 0 0 0 -45 -194 -214 -192 -126 -214 -43
0 0 0 0 0 0 0 0 0 -5 -9 0 -4 0 0 0 0 0 0 0 0 0 0 0 0 0 0 0 0 0 0 0 0 0 0 0 -241 -191 -184 -198 -162 -130 0
0 0 0 0 0 0 0 0 0 0 0 0 -2 0 0 0 0 0 0 0 0 0 0 0 0 0 0 0 0 0 0 0 0 0 0 0 -184 -185 -184 -159 -122 -129 -137
0 0 0 0 0 0 0 0 0 0 0 0 0 0 0 0 0 -12 0 0 0 0 0 0 0 0 0 0 0 0 0 0 0 0 0 -199 -187 -163 -107 -84 -184 0 0
0 0 0 0 0 0 0 0 0 0 0 0 0 0 0 0 0 0 0 0 0 0 0 0 0 0 0 0 0 0 0 0 0 0 0 -164 -188 -145 -86 -99 -305 0 0
0 0 0 0 0 0 0 0 0 0 0 0 0 0 0 0 0 0 0 0 0 0 0 0 0 0 0 0 0 0 0 0 0 0 -33 -121 -194 -232 -146 -136 -209 0 0
0 0 0 0 0 0 0 0 0 0 0 0 0 0 0 0 0 0 0 0 0 0 0 0 0 0 0 0 0 0 0 0 0 0 0 0 -181 -193 -147 -144 -174 0 0
0 0 0 0 0 0 0 0 0 0 0 0 0 0 0 0 0 0 0 0 0 0 0 0 0 0 0 0 0 0 0 0 0 0 0 0 0 -139 -133 -140 -184 0 0
Wind_Speed
41 43 45 46 45 44 46 46 46 47 46 47 47 48 48 47 45 45 44 43 42 41 39 39 39 36 33 32 31 32 33 41 47 41 33 28 19 40 37 33 28 25 21
44 46 47 47 47 49 48 47 46 46 44 43 43 44 45 46 46 45 43 42 43 42 40 39 39 38 34 30 33 33 35 34 40 43 35 29 16 26 26 27 27 24 20
47 49 50 50 51 51 49 47 45 45 44 43 43 44 45 44 46 45 44 44 43 42 41 39 38 35 38 35 33 35 34 31 36 38 37 28 25 24 24 28 25 22 21
50 50 49 50 49 47 44 45 45 43 44 42 40 43 45 44 43 42 43 43 42 43 41 39 39 37 35 33 33 34 33 30 31 38 37 31 25 22 22 25 25 22 21
50 49 48 47 45 42 43 42 42 41 39 38 41 43 42 41 39 38 38 40 39 41 41 40 38 34 34 32 32 32 27 25 30 35 33 30 25 23 23 26 24 18 20
48 47 45 42 39 39 40 40 38 39 41 42 41 42 41 39 38 39 39 38 39 42 43 42 37 37 36 33 28 23 22 29 30 30 29 24 23 22 28 25 20 19 22
45 43 41 39 39 39 38 38 39 43 44 42 40 40 40 39 37 37 34 34 42 39 35 40 41 33 31 26 26 46 45 26 21 18 21 17 26 30 26 22 21 21 23
42 38 36 37 37 37 38 41 44 44 44 43 42 39 37 38 36 35 35 38 41 34 32 36 39 37 34 31 34 39 46 26 12 15 13 22 21 23 23 19 17 18 16
36 36 37 35 35 38 40 42 43 46 44 43 41 38 38 36 34 33 31 38 37 38 35 37 37 34 33 34 33 37 27 25 20 9 11 17 16 16 14 12 17 16 15
36 36 34 34 35 37 40 41 43 44 45 43 40 37 34 31 33 40 40 33 33 34 34 35 30 24 26 30 28 22 18 14 9 9 9 12 10 11 14 13 13 14 11
34 33 31 32 33 35 36 39 42 44 43 41 38 35 28 29 34 39 38 35 34 32 32 29 24 21 23 15 19 22 19 19 11 8 9 9 13 16 14 11 11 10 8
32 30 32 31 33 34 34 39 39 41 41 39 35 31 31 32 33 33 35 36 34 33 32 11 14 14 19 16 17 16 11 11 12 12 13 14 17 19 17 12 10 11 11
31 30 28 27 28 31 33 36 38 38 38 33 33 33 30 27 26 28 32 37 35 34 29 18 8 18 16 13 18 8 9 12 12 9 15 16 12 8 8 10 11 10 8
30 26 26 24 28 31 32 30 33 35 30 17 22 23 21 18 21 23 29 32 34 29 9 12 19 12 12 11 11 7 11 14 18 17 13 9 6 6 7 8 6 3 3
30 27 24 24 28 31 30 29 28 25 16 4 14 16 16 18 20 19 27 32 30 16 9 15 21 19 16 13 9 12 15 14 11 9 6 6 5 4 4 4 5 3 7
29 26 22 23 26 29 27 26 23 17 6 8 14 16 17 14 12 11 21 30 25 13 16 26 26 23 20 16 19 16 11 8 8 8 6 4 5 6 4 5 5 7 11
23 21 21 22 25 27 23 21 19 15 1 8 14 16 13 12 13 14 21 32 37 24 33 30 26 26 25 22 15 12 9 7 7 5 3 4 5 6 6 6 8 9 11
20 19 21 24 24 24 19 18 14 11 4 12 15 16 15 13 14 13 20 25 33 33 33 28 26 27 25 14 13 9 5 6 6 5 5 6 9 10 11 10 10 8 7
24 23 22 23 24 23 20 16 15 6 10 16 18 18 16 14 12 12 13 24 30 30 26 27 28 26 19 12 12 10 10 10 9 8 8 10 11 12 12 12 9 7 6
28 25 25 24 26 24 21 15 14 12 20 20 19 19 17 14 12 17 14 21 24 24 25 27 26 21 10 11 11 11 10 12 13 12 11 12 12 13 13 12 11 8 8
32 28 27 27 28 27 22 16 14 15 18 19 16 15 16 15 13 22 20 19 22 24 20 21 21 16 12 10 9 10 10 11 12 11 13 12 12 14 14 13 9 8 7
38 33 29 29 29 28 24 18 19 16 23 10 6 13 15 15 16 23 23 21 23 25 25 22 20 18 17 16 12 11 11 11 10 12 11 11 13 14 13 11 8 10 12
40 38 34 32 31 29 27 23 18 16 3 4 2 8 9 8 11 21 22 23 23 23 24 24 25 24 21 18 16 12 10 10 10 12 13 13 14 15 13 9 9 15 14
40 40 39 36 34 28 30 20 13 7 3 5 6 9 10 13 10 11 19 22 24 25 25 24 26 29 26 22 18 16 12 11 12 13 14 16 16 16 14 10 9 15 16
39 39 40 36 37 18 23 24 4 5 5 8 11 12 13 16 15 15 17 17 19 22 25 27 28 29 29 27 23 20 16 16 16 18 19 20 19 18 14 9 9 14 7
36 36 37 34 30 17 9 16 3 7 6 9 13 15 17 17 18 18 18 18 20 21 22 25 25 28 28 27 25 23 19 20 21 22 22 22 22 19 12 8 11 21 21
Wind_Direction
311 312 312 314 314 315 312 311 310 308 307 305 303 300 298 296 295 295 294 294 294 295 297 296 295 291 286 280 275 271 269 269 274 279 272 282 285 250 262 261 263 269 275
312 312 314 314 314 312 312 312 312 311 310 309 307 304 302 298 294 292 292 293 292 293 295 294 294 292 286 280 277 274 272 267 268 270 276 276 260 230 249 256 258 265 270
312 312 312 313 312 312 312 313 313 312 311 312 311 309 307 304 300 293 290 290 291 290 291 291 291 291 285 284 278 275 273 270 265 265 268 266 272 265 244 249 254 260 270
312 312 313 312 313 314 314 314 315 315 314 314 313 311 309 306 303 297 290 289 289 289 289 289 288 288 282 282 280 274 272 269 264 260 261 262 260 253 233 235 245 258 264
313 313 312 315 316 316 316 317 318 318 319 317 316 315 313 310 307 304 298 291 289 287 287 287 286 287 280 277 277 274 269 262 261 259 258 256 246 233 219 234 242 251 262
312 312 316 319 321 321 320 320 321 321 319 317 315 314 313 312 308 305 300 295 290 283 284 284 286 287 278 274 267 258 259 263 255 252 253 233 231 218 228 229 234 246 259
313 316 319 321 322 322 323 324 323 321 319 317 316 315 312 312 309 303 302 297 285 284 285 280 276 279 282 281 270 229 221 200 250 225 229 237 219 218 220 225 237 249 259
317 320 323 324 325 327 326 324 323 323 321 317 314 312 312 311 309 302 297 293 283 285 284 280 268 262 262 271 260 245 236 241 230 217 211 221 221 218 221 231 241 252 268
321 322 324 329 330 329 329 328 327 325 322 319 316 312 307 308 309 303 295 283 278 266 270 257 253 259 260 256 266 228 235 229 233 221 223 209 201 203 218 228 239 249 264
320 326 330 332 332 332 333 332 331 328 324 321 317 314 307 306 307 286 261 276 272 261 253 250 262 265 255 264 242 227 212 202 171 162 161 193 193 209 225 240 240 251 271
327 331 335 337 337 337 337 337 335 333 331 328 322 317 311 308 303 268 256 258 243 241 242 252 258 252 270 234 206 209 204 200 193 151 177 192 213 223 237 249 258 266 281
335 336 338 341 342 343 341 342 342 340 338 335 331 323 315 306 282 257 246 239 236 232 235 290 253 241 207 219 212 198 183 194 202 203 208 217 224 230 240 255 265 270 274
339 339 344 347 348 347 345 346 348 348 346 343 329 308 297 279 260 246 238 227 226 221 226 235 215 203 212 204 194 160 177 198 208 217 215 219 233 242 249 258 262 269 270
342 348 350 352 351 351 351 350 353 356 359 7 273 280 275 266 265 266 231 219 214 220 239 209 115 204 204 198 200 184 198 202 202 205 218 224 242 258 263 263 262 262 259
348 351 354 354 354 354 356 356 359 5 16 255 236 248 247 261 277 282 215 207 212 231 198 208 201 201 200 202 196 194 196 204 214 224 235 248 265 282 286 275 265 250 272
352 357 359 357 357 358 360 1 10 20 34 225 206 217 253 253 269 270 217 208 214 220 211 200 190 188 194 195 187 195 215 234 248 257 268 298 295 280 299 281 269 257 266
1 3 3 1 360 1 2 7 13 29 228 223 218 217 228 242 273 277 223 206 173 207 192 191 189 191 193 189 200 213 225 253 277 301 5 10 345 290 291 280 266 267 276
16 13 12 8 7 8 11 13 23 36 211 257 251 243 252 255 264 266 205 197 187 185 188 192 194 196 199 209 217 232 265 292 325 326 324 291 272 270 267 272 273 283 292
22 20 17 15 16 18 21 23 30 50 225 251 254 250 252 261 252 231 196 177 175 184 193 194 198 201 210 223 229 236 251 266 277 287 282 270 266 277 275 277 293 302 306
24 26 26 24 22 26 30 31 34 39 271 258 264 256 244 250 228 196 171 171 180 190 195 195 198 210 221 233 235 245 267 267 264 270 272 267 272 284 286 289 291 308 315
24 28 29 30 29 31 36 39 38 49 325 280 270 242 230 216 209 186 186 189 189 189 191 200 210 217 226 232 243 260 281 276 277 271 267 270 284 290 292 300 321 335 347
16 26 32 34 34 35 42 47 53 70 34 326 263 209 211 207 204 198 201 202 198 198 202 210 214 219 227 228 241 256 272 283 285 269 276 283 298 299 305 324 357 349 340
10 24 34 36 37 42 48 53 70 90 159 338 277 206 215 212 211 203 208 210 213 214 216 219 221 222 225 233 241 256 282 293 292 278 272 279 292 310 329 356 350 343 13
5 10 21 29 35 48 47 62 81 108 217 278 273 237 244 219 221 226 223 224 223 222 223 225 224 220 226 232 245 251 274 291 292 285 277 274 287 313 335 1 360 11 322
4 4 8 2 17 63 60 62 40 121 202 240 259 241 259 237 234 231 235 239 237 234 230 226 223 223 225 231 241 250 271 282 288 280 272 271 279 298 337 29 43 61 330
359 0 2 356 352 341 56 70 2 319 276 256 249 256 263 262 252 250 250 249 244 243 242 235 235 229 232 237 244 250 265 271 279 279 276 268 264 287 343 43 93 164 205